#timestamp,LO_Frequency,Hit,StdDev 
1551056415.8,286046999.5,N
1551056435.7,286047000.7,N
1551056455.5,286047002.2,N
1551056475.3,286047000.2,N
1551056495.2,286046998.2,N
1551056515.0,286046999.3,N
1551056515.9,286046999.3,N
1551056535.7,286047002.2,N
1551056555.6,286047001.9,N
1551056575.4,286047001.1,N
1551056595.3,286046998.2,N
1551056615.1,286046999.0,N
1551056635.8,286046999.4,N
1551056655.7,286047000.8,N
1551056675.5,286046999.7,N
1551056695.4,286047001.0,N
1551056715.2,286046999.3,N
1551056735.0,286046997.7,N
1551056735.9,286046997.7,N
1551056755.8,286046996.5,N
1551056775.6,286046998.4,N
1551056795.4,286046999.5,N
1551056815.3,286046999.6,N
1551056835.1,286046997.7,N
1551056855.9,286046997.5,N
1551056875.7,286046995.5,Y
1551056895.5,286046997.9,P
1551056915.4,286046997.8,N
1551056935.2,286046997.6,P
1551056955.1,286046996.6,Y
1551056956.0,286046996.6,P
1551056975.8,286047000.7,N
1551056995.6,286047000.9,N
1551057015.5,286046999.9,N
1551057035.3,286047001.3,N
1551057055.1,286047002.3,N
1551057075.9,286047001.9,N
1551057095.7,286046999.8,N
1551057115.6,286047001.4,N
1551057135.4,286047002.2,N
1551057155.2,286047001.5,N
1551057175.1,286047001.5,N
1551057176.0,286047001.5,N
1551057195.8,286047002.6,N
1551057215.7,286047001.9,N
1551057235.5,286047003.5,N
1551057255.3,286047003.1,N
1551057275.2,286047004.2,N
1551057295.0,286047004.4,N
1551057295.9,286047004.4,N
1551057315.7,286047003.6,N
1551057335.6,286047004.0,N
1551057355.4,286047001.5,N
1551057375.3,286047004.0,N
1551057395.1,286047002.6,N
1551057396.0,286047002.6,N
1551057415.8,286047004.4,N
1551057435.7,286047003.7,N
1551057455.5,286047002.2,N
1551057475.4,286047002.3,N
1551057495.2,286047001.3,N
1551057515.0,286047004.2,Y
1551057515.9,286047004.2,P
1551057535.8,286047003.5,P
1551057555.6,286047001.4,N
1551057575.4,286047004.4,Y
1551057595.3,286047000.3,P
1551057615.1,286046998.3,N
1551057635.9,286046998.3,N
1551057655.7,286047001.2,N
1551057675.5,286046998.6,N
1551057695.4,286047000.8,N
1551057715.2,286046999.9,N
1551057735.1,286047000.7,N
1551057736.0,286047000.7,N
1551057755.8,286047000.5,N
1551057775.6,286046998.9,N
1551057795.5,286046996.5,N
1551057815.3,286046999.6,N
1551057835.1,286047000.9,N
1551057855.9,286047000.3,N
1551057875.7,286047002.6,N
1551057895.6,286047000.4,N
1551057915.4,286047002.8,N
1551057935.2,286046999.7,N
1551057955.1,286047002.2,N
1551057956.0,286047002.2,N
1551057975.8,286046998.6,N
1551057995.7,286046998.7,N
1551058015.5,286047000.3,N
1551058035.3,286047002.4,N
1551058055.2,286047000.5,N
1551058075.9,286046999.6,N
1551058095.7,286046998.8,N
1551058115.6,286046998.4,N
1551058135.4,286046998.7,N
1551058155.3,286047002.3,N
1551058175.1,286047000.1,N
1551058176.0,286047000.1,N
1551058195.8,286047000.1,N
1551058215.7,286047000.4,N
1551058235.5,286046998.1,N
1551058255.3,286046996.5,N
1551058275.2,286046998.4,N
1551058295.0,286046998.7,N
1551058295.9,286046998.7,N
1551058315.8,286047000.3,N
1551058335.6,286046999.6,N
1551058355.4,286046998.8,N
1551058375.3,286046999.4,N
1551058395.1,286047000.7,N
1551058415.9,286047001.6,N
1551058435.7,286047000.7,N
1551058455.5,286046996.5,N
1551058475.4,286046998.8,N
1551058495.2,286046996.6,N
1551058515.0,286046999.6,N
1551058515.9,286046999.6,N
1551058535.8,286046998.8,N
1551058555.6,286046999.5,N
1551058575.5,286046996.7,N
1551058595.3,286047001.2,N
1551058615.1,286047002.4,N
1551058635.9,286047001.1,N
1551058655.7,286047001.2,N
1551058675.5,286046998.6,N
1551058695.4,286046998.4,N
1551058715.2,286046998.3,N
1551058735.1,286047001.1,N
1551058736.0,286047001.1,N
1551058755.8,286046996.9,N
1551058775.6,286046997.5,N
1551058795.5,286046999.6,N
1551058815.3,286046998.3,N
1551058835.2,286046998.7,N
1551058855.9,286046997.0,N
1551058875.7,286047000.5,N
1551058895.6,286047000.7,N
1551058915.4,286046997.0,N
1551058935.2,286046996.7,N
1551058955.1,286046999.6,N
1551058956.0,286046999.6,N
1551058975.8,286046999.2,N
1551058995.7,286046999.4,N
1551059015.5,286046998.7,N
1551059035.3,286046999.2,N
1551059055.2,286046997.2,N
1551059075.0,286046999.0,N
1551059075.9,286046999.0,N
1551059095.8,286047000.9,N
1551059115.6,286047000.9,N
1551059135.4,286047001.7,N
1551059155.3,286047002.5,N
1551059175.1,286047001.6,N
1551059195.8,286046999.7,N
1551059215.7,286046998.4,N
1551059235.5,286046999.6,N
1551059255.4,286046996.7,N
1551059275.2,286047000.1,N
1551059295.0,286047000.0,N
1551059295.9,286047000.0,N
1551059315.8,286047000.1,N
1551059335.6,286047002.3,N
1551059355.4,286046999.8,N
1551059375.3,286047001.3,N
1551059395.1,286047002.2,N
1551059415.9,286047001.5,N
1551059435.7,286047000.3,N
1551059455.5,286046998.2,N
1551059475.4,286047000.6,N
1551059495.2,286047002.2,N
1551059515.1,286047001.6,N
1551059516.0,286047001.6,N
1551059535.8,286047003.9,N
1551059555.6,286047001.9,N
1551059575.5,286047001.3,N
1551059595.3,286047002.9,N
1551059615.2,286047001.3,N
1551059635.9,286047003.6,N
1551059655.7,286047004.2,N
1551059675.6,286047002.4,N
1551059695.4,286047001.4,N
1551059715.2,286047002.5,N
1551059735.1,286047004.4,N
1551059736.0,286047004.4,N
1551059755.8,286047001.6,N
1551059775.7,286047000.0,N
1551059795.5,286047000.9,N
1551059815.3,286047002.7,N
1551059835.2,286046998.9,N
1551059855.0,286046999.5,N
1551059855.9,286046999.5,N
1551059875.8,286047000.7,N
1551059895.6,286046998.8,N
1551059915.4,286046999.1,N
1551059935.3,286046999.1,N
1551059955.1,286046998.1,N
1551059975.8,286047002.7,N
1551059995.7,286047001.0,N
